STARLINK-1266 (45383 NORAD) Tracking and Keplerian Element Data

This shows tracking and keplerian element data for the satellite.

Feedback or suggestion? Click here.




ElementValue
Catalog45383
NameSTARLINK-1266
Epoch Orbit1126
Epoch Day146.25001157
Epoch Year2020
RAAN282.7164
Inclination52.9992
Eccentricity0.0001739
Argument of Perigee290.5982
Mean Anonmoly281.3958
Mean Motion15.56605059
Decay Rate0.03737339
L11 45383U 20019Z 20146.25001157 .03737339 00000-0 44327-1 0 9995
L22 45383 52.9992 282.7164 0001739 290.5982 281.3958 15.56605059 11264

Live tracking and technical data element details for STARLINK-1266 (NORAD 45383). STARLINK-1266 can be tracked NOW for your location showing map with azimuth and elevation plus other details from your city location.

Track the satellite on the map from your city or location and see movement details for azimuth, elevation, latitude, longitude, range, height, and movement on the map or in text.







IsCatalogInMostPopularTable: catalog: 45383, numindb: 15
Update: records affected: 1



GetName: 45383 STARLINK-1266

Hit Count: updated at: Tue, 26 May 2020 03:09:36 GMT